EW1109 Weather Reports


time (UTC)temp
C
wind
direction
speed
KPH
gust
KPH
rain 1hr
cm
rain 24hr
cm
rain mn
cm
humidity
%
barometer
mb
20260509150015 6 180 0.0 11.3 0.00 0.00 0.00 100 998.9
20260509144512 6 230 0.0 8.0 0.00 0.00 0.00 100 998.5
20260509143102 6 232 0.0 8.0 0.00 0.00 0.00 100 998.3
20260509141556 6 239 0.0 11.3 0.00 0.00 0.00 100 998.2
20260509140105 6 211 1.6 19.3 0.00 0.00 0.00 100 998.3
20260509134551 7 252 1.6 16.1 0.00 0.00 0.00 100 997.7
20260509133042 7 196 3.2 11.3 0.00 0.00 0.00 100 997.7
20260509131549 7 261 3.2 8.0 0.00 0.00 0.00 100 997.8
20260509130024 7 159 0.0 14.5 0.00 0.00 0.00 100 997.8
20260509124521 7 209 0.0 6.4 0.00 0.00 0.00 100 997.7
20260509123051 7 198 0.0 8.0 0.00 0.00 0.00 100 997.9
20260509121558 7 219 0.0 19.3 0.00 0.00 0.00 7 998.3
20260509120035 8 136 0.0 3.2 0.00 0.00 0.00 34 997.6
20260509114532 8 189 0.0 8.0 0.00 0.00 0.00 35 997.5
20260509113024 8 113 0.0 8.0 0.00 0.00 0.00 39 997.5
20260509111521 8 122 0.0 8.0 0.00 0.00 0.00 42 997.7
20260509110016 8 237 0.0 4.8 0.00 0.00 0.00 46 997.5
20260509104511 8 214 0.0 8.0 0.00 0.00 0.00 50 997.5
20260509103006 8 166 0.0 12.9 0.00 0.00 0.00 53 997.5
20260509101502 9 192 0.0 6.4 0.00 0.00 0.00 53 997.8
20260509100100 10 234 0.0 9.7 0.00 0.00 0.00 53 998.0
20260509094537 10 132 0.0 14.5 0.00 0.00 0.00 52 998.1
20260509093033 10 196 0.0 11.3 0.00 0.00 0.00 52 998.3
20260509091515 9 105 0.0 8.0 0.00 0.00 0.00 52 998.4
20260509090013 9 235 0.0 11.3 0.00 0.00 0.00 53 998.7
20260509084513 9 150 3.2 19.3 0.00 0.00 0.00 54 999.0
20260509083002 9 115 0.0 14.5 0.00 0.00 0.00 52 999.1
20260509081558 9 191 0.0 14.5 0.00 0.00 0.00 53 999.4
20260509080100 9 73 0.0 12.9 0.00 0.00 0.00 52 999.4
20260509074550 8 80 0.0 14.5 0.00 0.00 0.00 51 999.5
20260509073048 8 109 0.0 16.1 0.00 0.00 0.00 51 999.8
20260509071524 7 107 0.0 3.2 0.00 0.00 0.00 52 999.9
20260509070019 6 140 0.0 8.0 0.00 0.00 0.00 51 1000.2
20260509064557 6 32 0.0 3.2 0.00 0.00 0.00 50 1000.7
20260509063102 6 61 0.0 0.0 0.00 0.00 0.00 48 1000.9
20260509061539 6 70 0.0 1.6 0.00 0.00 0.00 50 1001.2
20260509060028 6 79 0.0 0.0 0.00 0.00 0.00 50 1001.5
20260509054505 6 94 0.0 0.0 0.00 0.00 0.00 52 1001.7
20260509053002 6 225 0.0 0.0 0.00 0.00 0.00 53 1001.9
20260509051545 6 225 0.0 0.0 0.00 0.00 0.00 53 1002.2
20260509050041 7 223 0.0 0.0 0.00 0.00 0.00 54 1002.3
20260509044536 7 225 0.0 0.0 0.00 0.00 0.00 54 1002.5
20260509043032 7 162 0.0 3.2 0.00 0.00 0.00 54 1002.8
20260509041536 7 123 0.0 0.0 0.00 0.00 0.00 54 1003.0
20260509040023 7 271 0.0 0.0 0.00 0.00 0.00 54 1003.3
20260509034518 7 16 0.0 3.2 0.00 0.00 0.00 54 1003.4
20260509033014 7 130 0.0 1.6 0.00 0.00 0.00 54 1003.7
20260509031606 7 105 0.0 1.6 0.00 0.00 0.00 55 1004.0
20260509030054 7 106 0.0 1.6 0.00 0.00 0.00 55 1004.3
20260509024549 7 78 0.0 0.0 0.00 0.00 0.00 55 1004.4
20260509023048 7 72 0.0 0.0 0.00 0.00 0.00 55 1004.4
20260509021541 8 132 0.0 0.0 0.00 0.00 0.00 54 1004.5
20260509020045 8 101 0.0 1.6 0.00 0.00 0.00 53 1004.5
20260509014532 8 144 0.0 0.0 0.00 0.00 0.00 52 1004.5
20260509013029 8 132 0.0 8.0 0.00 0.00 0.00 51 1004.4
20260509011506 8 173 0.0 0.0 0.00 0.00 0.00 53 1004.4
20260509010001 8 113 0.0 1.6 0.00 0.00 0.00 51 1004.4
20260509004542 9 222 0.0 0.0 0.00 0.00 0.00 51 1004.5
20260509003038 9 222 0.0 0.0 0.00 0.00 0.00 53 1004.7
20260509001533 9 265 0.0 0.0 0.00 0.00 0.00 52 1004.7
20260509000029 10 252 0.0 4.8 0.00 0.00 0.00 52 1004.7
20260508234526 9 178 0.0 4.8 0.00 0.00 0.00 53 1004.8
20260508233021 9 313 0.0 0.0 0.00 0.00 0.00 53 1005.0
20260508231515 9 313 0.0 0.0 0.00 0.00 0.00 53 1005.3
20260508230016 10 313 0.0 1.6 0.00 0.00 0.00 52 1005.4
20260508224506 10 263 0.0 8.0 0.00 0.00 0.00 52 1005.6
20260508223003 11 248 0.0 8.0 0.00 0.00 0.00 51 1005.9
20260508221520 11 225 1.6 11.3 0.00 0.00 0.00 49 1005.8
20260508220004 11 233 1.6 11.3 0.00 0.00 0.00 50 1005.9
20260508214503 12 239 1.6 9.7 0.00 0.00 0.00 48 1006.0
20260508213056 12 249 0.0 11.3 0.00 0.00 0.00 49 1006.0
20260508211505 12 220 1.6 9.7 0.00 0.00 0.00 49 1006.0
20260508210108 12 244 3.2 11.3 0.00 0.00 0.00 47 1006.2
20260508204556 10 257 1.6 16.1 0.00 0.00 0.00 46 1006.4
20260508203051 9 259 3.2 9.7 0.00 0.00 0.00 9 1006.6
20260508201535 10 228 3.2 12.9 0.00 0.00 0.00 13 1006.8
20260508200036 9 257 1.6 9.7 0.00 0.00 0.00 18 1007.0
20260508194526 8 250 1.6 11.3 0.00 0.00 0.00 20 1007.3
20260508193022 8 253 1.6 11.3 0.00 0.00 0.00 13 1007.6
20260508191519 7 246 3.2 9.7 0.00 0.00 0.00 4 1007.8
20260508190013 7 256 4.8 12.9 0.00 0.00 0.00 8 1007.9
20260508184509 7 253 4.8 14.5 0.00 0.00 0.00 13 1008.0
20260508183004 7 229 4.8 14.5 0.00 0.00 0.00 12 1008.2
20260508181548 7 197 8.0 19.3 0.00 0.00 0.00 13 1008.4
20260508180044 7 229 4.8 14.5 0.00 0.00 0.00 12 1008.4
20260508174541 7 218 4.8 14.5 0.00 0.00 0.00 17 1008.5
20260508173035 8 246 4.8 12.9 0.00 0.00 0.00 21 1008.4
20260508171533 7 257 4.8 12.9 0.00 0.00 0.00 30 1008.6
20260508170026 7 246 3.2 14.5 0.00 0.00 0.00 26 1008.7
20260508164527 7 234 4.8 14.5 0.00 0.00 0.00 30 1008.8
20260508163019 7 251 4.8 12.9 0.00 0.00 0.00 33 1008.9
20260508161503 7 235 4.8 16.1 0.00 0.00 0.00 32 1009.0
20260508160059 7 236 3.2 14.5 0.00 0.00 0.00 27 1009.1
20260508154554 7 261 3.2 14.5 0.00 0.00 0.00 28 1009.1
20260508153049 7 248 3.2 14.5 0.00 0.00 0.00 29 1009.3
20260508151545 7 250 3.2 14.5 0.00 0.00 0.00 31 1009.3